Time,TemperatureF,DewpointF,PressureIn,WindDirection,WindDirectionDegrees,WindSpeedMPH,WindSpeedGustMPH,Humidity,HourlyPrecipIn,Conditions,Clouds,dailyrainin,SoftwareType,DateUTC
2013-02-01 00:05:00,20.7,15.2,30.05,ESE,121,3.0,14.0,79,0.00,,,0.00,Wunderground v.1.15,2013-02-01 05:05:00,
2013-02-01 00:10:00,20.4,14.6,30.05,SE,129,3.0,14.0,78,0.00,,,0.00,Wunderground v.1.15,2013-02-01 05:10:00,
2013-02-01 00:20:00,19.7,13.4,30.06,South,176,3.0,3.0,76,0.00,,,0.00,Wunderground v.1.15,2013-02-01 05:20:00,
2013-02-01 00:25:00,19.3,11.7,30.07,SSW,213,3.0,14.0,72,0.00,,,0.00,Wunderground v.1.15,2013-02-01 05:25:00,
2013-02-01 00:35:00,18.8,11.3,30.08,SE,137,3.0,14.0,72,0.00,,,0.00,Wunderground v.1.15,2013-02-01 05:35:00,
2013-02-01 00:45:00,18.1,10.3,30.09,East,100,4.0,14.0,71,0.00,,,0.00,Wunderground v.1.15,2013-02-01 05:45:00,
2013-02-01 00:50:00,17.8,10.0,30.09,SSE,155,4.0,4.0,71,0.00,,,0.00,Wunderground v.1.15,2013-02-01 05:50:00,
2013-02-01 00:55:00,17.6,9.5,30.10,SE,127,3.0,14.0,70,0.00,,,0.00,Wunderground v.1.15,2013-02-01 05:55:00,
2013-02-01 01:05:00,17.1,8.3,30.11,SE,137,3.0,14.0,68,0.00,,,0.00,Wunderground v.1.15,2013-02-01 06:05:00,
2013-02-01 01:10:00,16.9,8.2,30.11,ESE,114,3.0,14.0,68,0.00,,,0.00,Wunderground v.1.15,2013-02-01 06:10:00,
2013-02-01 01:15:00,16.7,7.6,30.11,South,183,3.0,14.0,67,0.00,,,0.00,Wunderground v.1.15,2013-02-01 06:15:00,
2013-02-01 01:25:00,16.0,6.6,30.12,SSE,165,4.0,14.0,66,0.00,,,0.00,Wunderground v.1.15,2013-02-01 06:25:00,
2013-02-01 01:35:00,15.7,6.3,30.13,ESE,111,3.0,14.0,66,0.00,,,0.00,Wunderground v.1.15,2013-02-01 06:35:00,
2013-02-01 01:40:00,15.6,6.6,30.14,SSW,195,4.0,4.0,67,0.00,,,0.00,Wunderground v.1.15,2013-02-01 06:40:00,
2013-02-01 01:45:00,15.6,6.9,30.14,ENE,60,3.0,14.0,68,0.00,,,0.00,Wunderground v.1.15,2013-02-01 06:45:00,
2013-02-01 01:55:00,15.5,7.5,30.15,SW,235,2.0,14.0,70,0.00,,,0.00,Wunderground v.1.15,2013-02-01 06:55:00,
2013-02-01 02:05:00,14.9,7.2,30.16,ESE,113,1.0,14.0,71,0.00,,,0.00,Wunderground v.1.15,2013-02-01 07:05:00,
2013-02-01 02:10:00,14.6,7.2,30.17,SSE,149,2.0,2.0,72,0.00,,,0.00,Wunderground v.1.15,2013-02-01 07:10:00,
2013-02-01 02:15:00,14.4,6.7,30.17,ESE,108,3.0,3.0,71,0.00,,,0.00,Wunderground v.1.15,2013-02-01 07:15:00,
2013-02-01 02:25:00,14.4,6.4,30.18,ESE,121,3.0,14.0,70,0.00,,,0.00,Wunderground v.1.15,2013-02-01 07:25:00,
2013-02-01 02:35:00,14.1,5.5,30.19,SSE,148,2.0,14.0,68,0.00,,,0.00,Wunderground v.1.15,2013-02-01 07:35:00,
2013-02-01 02:40:00,13.9,5.6,30.20,SE,142,3.0,14.0,69,0.00,,,0.00,Wunderground v.1.15,2013-02-01 07:40:00,
2013-02-01 02:45:00,13.6,5.3,30.20,SSE,155,2.0,14.0,69,0.00,,,0.00,Wunderground v.1.15,2013-02-01 07:45:00,
2013-02-01 02:55:00,13.2,5.2,30.20,SE,124,2.0,14.0,70,0.00,,,0.00,Wunderground v.1.15,2013-02-01 07:55:00,
2013-02-01 03:00:00,13.2,4.9,30.21,SE,136,1.0,14.0,69,0.00,,,0.00,Wunderground v.1.15,2013-02-01 08:00:00,
2013-02-01 03:05:00,13.2,5.2,30.22,SSW,210,2.0,14.0,70,0.00,,,0.00,Wunderground v.1.15,2013-02-01 08:05:00,
2013-02-01 03:10:00,13.2,5.2,30.22,SE,143,3.0,14.0,70,0.00,,,0.00,Wunderground v.1.15,2013-02-01 08:10:00,
2013-02-01 03:15:00,13.3,5.3,30.22,South,172,3.0,14.0,70,0.00,,,0.00,Wunderground v.1.15,2013-02-01 08:15:00,
2013-02-01 03:20:00,13.2,4.9,30.22,SE,138,4.0,14.0,69,0.00,,,0.00,Wunderground v.1.15,2013-02-01 08:20:00,
2013-02-01 03:30:00,13.0,5.0,30.23,SSE,167,4.0,14.0,70,0.00,,,0.00,Wunderground v.1.15,2013-02-01 08:30:00,
2013-02-01 03:35:00,12.9,5.0,30.24,ESE,120,4.0,14.0,70,0.00,,,0.00,Wunderground v.1.15,2013-02-01 08:35:00,
2013-02-01 03:45:00,12.5,4.6,30.24,ESE,105,3.0,14.0,70,0.00,,,0.00,Wunderground v.1.15,2013-02-01 08:45:00,
2013-02-01 03:55:00,12.1,4.2,30.24,SW,228,2.0,14.0,70,0.00,,,0.00,Wunderground v.1.15,2013-02-01 08:55:00,
2013-02-01 04:00:00,11.9,4.3,30.24,SSW,208,2.0,2.0,71,0.00,,,0.00,Wunderground v.1.15,2013-02-01 09:00:00,
2013-02-01 04:10:00,11.5,4.2,30.25,SW,232,1.0,1.0,72,0.00,,,0.00,Wunderground v.1.15,2013-02-01 09:10:00,
2013-02-01 04:20:00,11.3,4.3,30.25,SE,136,2.0,2.0,73,0.00,,,0.00,Wunderground v.1.15,2013-02-01 09:20:00,
2013-02-01 04:25:00,11.1,4.4,30.25,SW,224,2.0,14.0,74,0.00,,,0.00,Wunderground v.1.15,2013-02-01 09:25:00,
2013-02-01 04:35:00,11.0,4.9,30.26,SSE,164,2.0,14.0,76,0.00,,,0.00,Wunderground v.1.15,2013-02-01 09:35:00,
2013-02-01 04:45:00,11.4,5.6,30.27,ESE,122,2.0,14.0,77,0.00,,,0.00,Wunderground v.1.15,2013-02-01 09:45:00,
2013-02-01 04:50:00,11.4,5.9,30.26,South,179,2.0,14.0,78,0.00,,,0.00,Wunderground v.1.15,2013-02-01 09:50:00,
2013-02-01 05:00:00,11.6,5.2,30.27,SW,228,2.0,14.0,75,0.00,,,0.00,Wunderground v.1.15,2013-02-01 10:00:00,
2013-02-01 05:05:00,11.7,5.6,30.27,SW,218,3.0,14.0,76,0.00,,,0.00,Wunderground v.1.15,2013-02-01 10:05:00,
2013-02-01 05:15:00,11.4,5.6,30.28,SSW,198,2.0,14.0,77,0.00,,,0.00,Wunderground v.1.15,2013-02-01 10:15:00,
2013-02-01 05:20:00,11.3,5.5,30.28,East,94,2.0,14.0,77,0.00,,,0.00,Wunderground v.1.15,2013-02-01 10:20:00,
2013-02-01 05:30:00,11.1,4.4,30.30,South,187,2.0,2.0,74,0.00,,,0.00,Wunderground v.1.15,2013-02-01 10:30:00,
2013-02-01 05:40:00,10.8,2.9,30.30,East,82,1.0,14.0,70,0.00,,,0.00,Wunderground v.1.15,2013-02-01 10:40:00,
2013-02-01 05:45:00,10.7,2.8,30.31,ENE,76,2.0,14.0,70,0.00,,,0.00,Wunderground v.1.15,2013-02-01 10:45:00,
2013-02-01 05:55:00,10.4,2.9,30.31,SSE,158,2.0,14.0,71,0.00,,,0.00,Wunderground v.1.15,2013-02-01 10:55:00,
2013-02-01 06:05:00,10.1,2.6,30.31,West,274,3.0,14.0,71,0.00,,,0.00,Wunderground v.1.15,2013-02-01 11:05:00,
2013-02-01 06:15:00,9.9,2.4,30.32,SE,145,2.0,14.0,71,0.00,,,0.00,Wunderground v.1.15,2013-02-01 11:15:00,
2013-02-01 06:20:00,9.7,1.9,30.32,SSW,205,2.0,2.0,70,0.00,,,0.00,Wunderground v.1.15,2013-02-01 11:20:00,
2013-02-01 06:25:00,9.5,1.7,30.33,South,183,1.0,3.0,70,0.00,,,0.00,Wunderground v.1.15,2013-02-01 11:25:00,
2013-02-01 06:35:00,9.3,1.8,30.33,SSE,157,1.0,14.0,71,0.00,,,0.00,Wunderground v.1.15,2013-02-01 11:35:00,
2013-02-01 06:45:00,9.2,1.7,30.34,West,264,2.0,14.0,71,0.00,,,0.00,Wunderground v.1.15,2013-02-01 11:45:00,
2013-02-01 06:55:00,9.1,1.6,30.34,SE,129,2.0,4.0,71,0.00,,,0.00,Wunderground v.1.15,2013-02-01 11:55:00,
2013-02-01 07:05:00,9.0,1.5,30.34,SE,129,2.0,14.0,71,0.00,,,0.00,Wunderground v.1.15,2013-02-01 12:05:00,
2013-02-01 07:10:00,9.0,1.5,30.35,SE,132,2.0,14.0,71,0.00,,,0.00,Wunderground v.1.15,2013-02-01 12:10:00,
2013-02-01 07:20:00,8.8,1.9,30.35,ESE,113,1.0,14.0,73,0.00,,,0.00,Wunderground v.1.15,2013-02-01 12:20:00,
2013-02-01 07:25:00,8.7,1.5,30.35,SW,218,1.0,14.0,72,0.00,,,0.00,Wunderground v.1.15,2013-02-01 12:25:00,
2013-02-01 07:30:00,8.6,1.4,30.35,SSE,158,2.0,2.0,72,0.00,,,0.00,Wunderground v.1.15,2013-02-01 12:30:00,
2013-02-01 07:35:00,8.5,1.6,30.36,SW,232,1.0,14.0,73,0.00,,,0.00,Wunderground v.1.15,2013-02-01 12:35:00,
2013-02-01 07:45:00,8.4,1.5,30.36,WSW,247,1.0,14.0,73,0.00,,,0.00,Wunderground v.1.15,2013-02-01 12:45:00,
2013-02-01 07:50:00,8.4,1.5,30.37,South,186,0.0,14.0,73,0.00,,,0.00,Wunderground v.1.15,2013-02-01 12:50:00,
2013-02-01 07:55:00,8.3,1.4,30.37,East,84,0.0,14.0,73,0.00,,,0.00,Wunderground v.1.15,2013-02-01 12:55:00,
2013-02-01 08:00:00,8.1,1.5,30.37,SE,124,0.0,14.0,74,0.00,,,0.00,Wunderground v.1.15,2013-02-01 13:00:00,
2013-02-01 08:05:00,8.2,1.6,30.37,SE,137,0.0,14.0,74,0.00,,,0.00,Wunderground v.1.15,2013-02-01 13:05:00,
2013-02-01 08:15:00,8.5,1.3,30.38,SW,228,1.0,14.0,72,0.00,,,0.00,Wunderground v.1.15,2013-02-01 13:15:00,
2013-02-01 08:20:00,8.7,1.8,30.38,SW,231,1.0,14.0,73,0.00,,,0.00,Wunderground v.1.15,2013-02-01 13:20:00,
2013-02-01 08:30:00,9.1,1.9,30.38,South,172,2.0,14.0,72,0.00,,,0.00,Wunderground v.1.15,2013-02-01 13:30:00,
2013-02-01 08:40:00,9.4,1.6,30.39,ENE,78,3.0,14.0,70,0.00,,,0.00,Wunderground v.1.15,2013-02-01 13:40:00,
2013-02-01 08:50:00,10.1,1.9,30.39,SE,145,4.0,4.0,69,0.00,,,0.00,Wunderground v.1.15,2013-02-01 13:50:00,
2013-02-01 08:55:00,10.4,2.5,30.40,SSE,147,3.0,5.0,70,0.00,,,0.00,Wunderground v.1.15,2013-02-01 13:55:00,
2013-02-01 09:00:00,10.7,2.5,30.40,SSE,157,3.0,3.0,69,0.00,,,0.00,Wunderground v.1.15,2013-02-01 14:00:00,
2013-02-01 09:10:00,-999.9,-99.9,30.40,SW,224,2.0,2.0,255,0.00,,,0.00,Wunderground v.1.15,2013-02-01 14:10:00,
2013-02-01 09:20:00,-999.9,-99.9,30.40,East,95,3.0,3.0,255,0.00,,,0.00,Wunderground v.1.15,2013-02-01 14:20:00,
2013-02-01 09:30:00,-999.9,-99.9,30.40,SE,141,3.0,3.0,255,0.00,,,0.00,Wunderground v.1.15,2013-02-01 14:30:00,
2013-02-01 09:35:00,-999.9,-99.9,30.40,East,98,3.0,5.0,255,0.00,,,0.00,Wunderground v.1.15,2013-02-01 14:35:00,
2013-02-01 09:45:00,-999.9,-99.9,30.41,South,180,3.0,7.0,255,0.00,,,0.00,Wunderground v.1.15,2013-02-01 14:45:00,
2013-02-01 09:50:00,-999.9,-99.9,30.41,ESE,105,3.0,3.0,255,0.00,,,0.00,Wunderground v.1.15,2013-02-01 14:50:00,
2013-02-01 10:00:00,-999.9,-99.9,30.41,WSW,246,3.0,14.0,255,0.00,,,0.00,Wunderground v.1.15,2013-02-01 15:00:00,
2013-02-01 10:05:00,-999.9,-99.9,30.41,SE,142,3.0,4.0,255,0.00,,,0.00,Wunderground v.1.15,2013-02-01 15:05:00,
2013-02-01 10:15:00,-999.9,-99.9,30.41,SSE,157,3.0,10.0,255,0.00,,,0.00,Wunderground v.1.15,2013-02-01 15:15:00,
2013-02-01 10:25:00,-999.9,-99.9,30.41,SE,143,5.0,10.0,255,0.00,,,0.00,Wunderground v.1.15,2013-02-01 15:25:00,
2013-02-01 10:35:00,-999.9,-99.9,30.42,SSW,201,4.0,10.0,255,0.00,,,0.00,Wunderground v.1.15,2013-02-01 15:35:00,
2013-02-01 10:45:00,-999.9,-99.9,30.43,SSW,207,4.0,10.0,255,0.00,,,0.00,Wunderground v.1.15,2013-02-01 15:45:00,
2013-02-01 10:50:00,-999.9,-99.9,30.43,SSE,167,3.0,3.0,255,0.00,,,0.00,Wunderground v.1.15,2013-02-01 15:50:00,
2013-02-01 11:00:00,-999.9,-99.9,30.43,SW,219,3.0,10.0,255,0.00,,,0.00,Wunderground v.1.15,2013-02-01 16:00:00,
2013-02-01 11:10:00,-999.9,-99.9,30.44,SW,221,2.0,10.0,255,0.00,,,0.00,Wunderground v.1.15,2013-02-01 16:10:00,
2013-02-01 11:20:00,-999.9,-99.9,30.44,South,190,4.0,10.0,255,0.00,,,0.00,Wunderground v.1.15,2013-02-01 16:20:00,
2013-02-01 11:30:00,-999.9,-99.9,30.44,SSE,153,5.0,10.0,255,0.00,,,0.00,Wunderground v.1.15,2013-02-01 16:30:00,
2013-02-01 11:40:00,-999.9,-99.9,30.44,SSE,155,4.0,10.0,255,0.00,,,0.00,Wunderground v.1.15,2013-02-01 16:40:00,
2013-02-01 11:50:00,-999.9,-99.9,30.44,SSE,158,3.0,3.0,255,0.00,,,0.00,Wunderground v.1.15,2013-02-01 16:50:00,
2013-02-01 11:55:00,-999.9,-99.9,30.44,SE,128,2.0,10.0,255,0.00,,,0.00,Wunderground v.1.15,2013-02-01 16:55:00,
2013-02-01 12:05:00,-999.9,-99.9,30.44,SW,226,4.0,10.0,255,0.00,,,0.00,Wunderground v.1.15,2013-02-01 17:05:00,
2013-02-01 12:15:00,-999.9,-99.9,30.45,South,191,5.0,10.0,255,0.00,,,0.00,Wunderground v.1.15,2013-02-01 17:15:00,
2013-02-01 12:20:00,-999.9,-99.9,30.45,SSE,160,5.0,10.0,255,0.00,,,0.00,Wunderground v.1.15,2013-02-01 17:20:00,
2013-02-01 12:30:00,-999.9,-99.9,30.45,East,96,4.0,4.0,255,0.00,,,0.00,Wunderground v.1.15,2013-02-01 17:30:00,
2013-02-01 12:40:00,-999.9,-99.9,30.44,SE,141,3.0,10.0,255,0.00,,,0.00,Wunderground v.1.15,2013-02-01 17:40:00,
2013-02-01 12:50:00,-999.9,-99.9,30.44,South,169,4.0,10.0,255,0.00,,,0.00,Wunderground v.1.15,2013-02-01 17:50:00,
2013-02-01 13:00:00,-999.9,-99.9,30.44,South,183,4.0,10.0,255,0.00,,,0.00,Wunderground v.1.15,2013-02-01 18:00:00,
2013-02-01 13:10:00,-999.9,-99.9,30.43,SSW,203,4.0,10.0,255,0.00,,,0.00,Wunderground v.1.15,2013-02-01 18:10:00,
2013-02-01 13:20:00,-999.9,-99.9,30.43,SSW,195,5.0,10.0,255,0.00,,,0.00,Wunderground v.1.15,2013-02-01 18:20:00,
2013-02-01 13:30:00,-999.9,-99.9,30.43,South,177,4.0,10.0,255,0.00,,,0.00,Wunderground v.1.15,2013-02-01 18:30:00,
2013-02-01 13:35:00,-999.9,-99.9,30.43,SSW,210,4.0,10.0,255,0.00,,,0.00,Wunderground v.1.15,2013-02-01 18:35:00,
2013-02-01 13:45:00,-999.9,-99.9,30.42,SSE,167,2.0,10.0,255,0.00,,,0.00,Wunderground v.1.15,2013-02-01 18:45:00,
2013-02-01 13:55:00,19.3,8.0,30.42,South,170,3.0,10.0,61,0.00,,,0.00,Wunderground v.1.15,2013-02-01 18:55:00,
2013-02-01 14:00:00,19.3,7.7,30.42,SE,141,4.0,4.0,60,0.00,,,0.00,Wunderground v.1.15,2013-02-01 19:00:00,
2013-02-01 14:05:00,-999.9,-99.9,30.42,SSW,210,5.0,9.0,255,0.00,,,0.00,Wunderground v.1.15,2013-02-01 19:05:00,
2013-02-01 14:15:00,19.8,7.8,30.42,SSE,153,5.0,10.0,59,0.00,,,0.00,Wunderground v.1.15,2013-02-01 19:15:00,
2013-02-01 14:20:00,19.6,7.2,30.41,SSW,207,6.0,10.0,58,0.00,,,0.00,Wunderground v.1.15,2013-02-01 19:20:00,
2013-02-01 14:25:00,19.6,8.0,30.41,SSE,158,5.0,10.0,60,0.00,,,0.00,Wunderground v.1.15,2013-02-01 19:25:00,
2013-02-01 14:35:00,19.4,7.4,30.41,South,188,4.0,10.0,59,0.00,,,0.00,Wunderground v.1.15,2013-02-01 19:35:00,
2013-02-01 14:45:00,19.3,7.3,30.41,SSE,162,5.0,8.0,59,0.00,,,0.00,Wunderground v.1.15,2013-02-01 19:45:00,
2013-02-01 14:50:00,18.6,7.0,30.41,SSW,203,6.0,6.0,60,0.00,,,0.00,Wunderground v.1.15,2013-02-01 19:50:00,
2013-02-01 15:00:00,19.1,7.1,30.41,SSE,164,4.0,4.0,59,0.00,,,0.00,Wunderground v.1.15,2013-02-01 20:00:00,
2013-02-01 15:05:00,19.6,7.6,30.41,SSW,194,4.0,10.0,59,0.00,,,0.00,Wunderground v.1.15,2013-02-01 20:05:00,
2013-02-01 15:10:00,19.4,7.4,30.41,South,184,4.0,4.0,59,0.00,,,0.00,Wunderground v.1.15,2013-02-01 20:10:00,
2013-02-01 15:15:00,19.6,7.6,30.41,SSW,207,4.0,10.0,59,0.00,,,0.00,Wunderground v.1.15,2013-02-01 20:15:00,
2013-02-01 15:20:00,19.7,7.3,30.40,ESE,117,4.0,4.0,58,0.00,,,0.00,Wunderground v.1.15,2013-02-01 20:20:00,
2013-02-01 15:25:00,19.4,7.4,30.41,SE,142,2.0,10.0,59,0.00,,,0.00,Wunderground v.1.15,2013-02-01 20:25:00,
2013-02-01 15:35:00,20.2,7.8,30.41,SSE,167,4.0,10.0,58,0.00,,,0.00,Wunderground v.1.15,2013-02-01 20:35:00,
2013-02-01 15:40:00,19.9,7.9,30.41,SSE,166,4.0,10.0,59,0.00,,,0.00,Wunderground v.1.15,2013-02-01 20:40:00,
2013-02-01 15:50:00,20.3,7.1,30.40,South,169,3.0,3.0,56,0.00,,,0.00,Wunderground v.1.15,2013-02-01 20:50:00,
2013-02-01 15:55:00,20.5,7.3,30.40,South,187,3.0,4.0,56,0.00,,,0.00,Wunderground v.1.15,2013-02-01 20:55:00,
2013-02-01 16:05:00,20.6,7.4,30.40,SW,219,3.0,10.0,56,0.00,,,0.00,Wunderground v.1.15,2013-02-01 21:05:00,
2013-02-01 16:10:00,20.8,8.3,30.40,SSW,207,4.0,10.0,58,0.00,,,0.00,Wunderground v.1.15,2013-02-01 21:10:00,
2013-02-01 16:15:00,20.8,7.9,30.40,SSW,201,4.0,10.0,57,0.00,,,0.00,Wunderground v.1.15,2013-02-01 21:15:00,
2013-02-01 16:25:00,20.6,7.4,30.40,South,190,4.0,10.0,56,0.00,,,0.00,Wunderground v.1.15,2013-02-01 21:25:00,
2013-02-01 16:30:00,20.9,9.2,30.40,SSW,201,4.0,10.0,60,0.00,,,0.00,Wunderground v.1.15,2013-02-01 21:30:00,
2013-02-01 16:35:00,20.4,7.6,30.40,SSW,201,5.0,10.0,57,0.00,,,0.00,Wunderground v.1.15,2013-02-01 21:35:00,
2013-02-01 16:40:00,20.3,8.2,30.40,SW,224,5.0,5.0,59,0.00,,,0.00,Wunderground v.1.15,2013-02-01 21:40:00,
2013-02-01 16:50:00,20.0,7.6,30.40,SSE,150,4.0,10.0,58,0.00,,,0.00,Wunderground v.1.15,2013-02-01 21:50:00,
2013-02-01 16:55:00,19.6,7.6,30.40,SSW,210,4.0,10.0,59,0.00,,,0.00,Wunderground v.1.15,2013-02-01 21:55:00,
2013-02-01 17:00:00,19.1,7.5,30.40,South,188,4.0,10.0,60,0.00,,,0.00,Wunderground v.1.15,2013-02-01 22:00:00,
2013-02-01 17:05:00,18.8,7.6,30.40,SSW,207,4.0,10.0,61,0.00,,,0.00,Wunderground v.1.15,2013-02-01 22:05:00,
2013-02-01 17:10:00,18.5,7.3,30.40,SW,232,2.0,10.0,61,0.00,,,0.00,Wunderground v.1.15,2013-02-01 22:10:00,
2013-02-01 17:20:00,18.2,18.2,30.40,SW,235,3.0,3.0,100,0.00,,,0.00,Wunderground v.1.15,2013-02-01 22:20:00,
2013-02-01 17:25:00,18.1,7.6,30.40,SW,217,3.0,10.0,63,0.00,,,0.00,Wunderground v.1.15,2013-02-01 22:25:00,
2013-02-01 17:30:00,17.9,7.8,30.40,SW,235,2.0,2.0,64,0.00,,,0.00,Wunderground v.1.15,2013-02-01 22:30:00,
2013-02-01 17:35:00,17.8,7.3,30.40,SSW,210,2.0,4.0,63,0.00,,,0.00,Wunderground v.1.15,2013-02-01 22:35:00,
2013-02-01 17:45:00,17.6,7.5,30.40,SW,228,2.0,10.0,64,0.00,,,0.00,Wunderground v.1.15,2013-02-01 22:45:00,
2013-02-01 17:50:00,17.5,7.0,30.40,SW,219,2.0,2.0,63,0.00,,,0.00,Wunderground v.1.15,2013-02-01 22:50:00,
2013-02-01 17:55:00,17.3,6.8,30.40,SW,223,2.0,10.0,63,0.00,,,0.00,Wunderground v.1.15,2013-02-01 22:55:00,
2013-02-01 18:05:00,16.9,7.2,30.40,SSE,148,0.0,10.0,65,0.00,,,0.00,Wunderground v.1.15,2013-02-01 23:05:00,
2013-02-01 18:10:00,16.5,7.1,30.40,SSE,149,0.0,10.0,66,0.00,,,0.00,Wunderground v.1.15,2013-02-01 23:10:00,
2013-02-01 18:15:00,16.2,7.2,30.40,West,273,0.0,10.0,67,0.00,,,0.00,Wunderground v.1.15,2013-02-01 23:15:00,
2013-02-01 18:25:00,15.6,7.6,30.40,West,273,0.0,10.0,70,0.00,,,0.00,Wunderground v.1.15,2013-02-01 23:25:00,
2013-02-01 18:30:00,15.3,7.6,30.40,West,273,0.0,10.0,71,0.00,,,0.00,Wunderground v.1.15,2013-02-01 23:30:00,
2013-02-01 18:40:00,15.1,7.4,30.41,West,278,0.0,10.0,71,0.00,,,0.00,Wunderground v.1.15,2013-02-01 23:40:00,
2013-02-01 18:45:00,15.0,7.6,30.41,West,278,0.0,10.0,72,0.00,,,0.00,Wunderground v.1.15,2013-02-01 23:45:00,
2013-02-01 18:55:00,15.0,7.6,30.41,West,278,0.0,10.0,72,0.00,,,0.00,Wunderground v.1.15,2013-02-01 23:55:00,
2013-02-01 19:05:00,14.9,7.5,30.41,West,281,0.0,10.0,72,0.00,,,0.00,Wunderground v.1.15,2013-02-02 00:05:00,
2013-02-01 19:10:00,14.9,7.8,30.41,West,279,0.0,10.0,73,0.00,,,0.00,Wunderground v.1.15,2013-02-02 00:10:00,
2013-02-01 19:15:00,14.8,7.4,30.41,West,280,0.0,10.0,72,0.00,,,0.00,Wunderground v.1.15,2013-02-02 00:15:00,
2013-02-01 19:20:00,14.8,7.7,30.41,West,280,0.0,10.0,73,0.00,,,0.00,Wunderground v.1.15,2013-02-02 00:20:00,
2013-02-01 19:30:00,14.6,7.5,30.41,West,280,0.0,10.0,73,0.00,,,0.00,Wunderground v.1.15,2013-02-02 00:30:00,
2013-02-01 19:35:00,14.5,7.7,30.41,West,280,0.0,10.0,74,0.00,,,0.00,Wunderground v.1.15,2013-02-02 00:35:00,
2013-02-01 19:45:00,14.2,7.4,30.41,West,280,0.0,10.0,74,0.00,,,0.00,Wunderground v.1.15,2013-02-02 00:45:00,
2013-02-01 19:50:00,14.0,7.8,30.41,West,279,0.0,10.0,76,0.00,,,0.00,Wunderground v.1.15,2013-02-02 00:50:00,
2013-02-01 19:55:00,13.7,7.5,30.41,West,280,0.0,10.0,76,0.00,,,0.00,Wunderground v.1.15,2013-02-02 00:55:00,
2013-02-01 20:00:00,13.1,7.2,30.40,West,280,0.0,10.0,77,0.00,,,0.00,Wunderground v.1.15,2013-02-02 01:00:00,
2013-02-01 20:10:00,12.9,7.6,30.41,West,280,0.0,10.0,79,0.00,,,0.00,Wunderground v.1.15,2013-02-02 01:10:00,
2013-02-01 20:20:00,12.6,7.3,30.40,West,280,0.0,10.0,79,0.00,,,0.00,Wunderground v.1.15,2013-02-02 01:20:00,
2013-02-01 20:25:00,12.5,7.2,30.41,West,280,0.0,10.0,79,0.00,,,0.00,Wunderground v.1.15,2013-02-02 01:25:00,
2013-02-01 20:30:00,12.3,7.0,30.40,West,279,0.0,10.0,79,0.00,,,0.00,Wunderground v.1.15,2013-02-02 01:30:00,
2013-02-01 20:40:00,11.9,6.9,30.40,West,280,0.0,10.0,80,0.00,,,0.00,Wunderground v.1.15,2013-02-02 01:40:00,
2013-02-01 20:50:00,12.0,7.0,30.40,West,280,0.0,10.0,80,0.00,,,0.00,Wunderground v.1.15,2013-02-02 01:50:00,
2013-02-01 21:00:00,11.8,7.1,30.40,West,280,0.0,10.0,81,0.00,,,0.00,Wunderground v.1.15,2013-02-02 02:00:00,
2013-02-01 21:05:00,11.7,7.0,30.40,West,279,0.0,10.0,81,0.00,,,0.00,Wunderground v.1.15,2013-02-02 02:05:00,
2013-02-01 21:10:00,11.6,7.2,30.40,West,280,0.0,10.0,82,0.00,,,0.00,Wunderground v.1.15,2013-02-02 02:10:00,
2013-02-01 21:15:00,11.5,7.1,30.39,West,280,0.0,10.0,82,0.00,,,0.00,Wunderground v.1.15,2013-02-02 02:15:00,
2013-02-01 21:20:00,11.4,7.0,30.39,West,280,0.0,10.0,82,0.00,,,0.00,Wunderground v.1.15,2013-02-02 02:20:00,
2013-02-01 21:25:00,11.4,7.0,30.39,West,281,0.0,10.0,82,0.00,,,0.00,Wunderground v.1.15,2013-02-02 02:25:00,
2013-02-01 21:30:00,11.3,7.1,30.39,West,280,0.0,10.0,83,0.00,,,0.00,Wunderground v.1.15,2013-02-02 02:30:00,
2013-02-01 21:35:00,11.3,7.4,30.39,West,279,0.0,10.0,84,0.00,,,0.00,Wunderground v.1.15,2013-02-02 02:35:00,
2013-02-01 21:40:00,11.2,7.3,30.39,West,280,0.0,10.0,84,0.00,,,0.00,Wunderground v.1.15,2013-02-02 02:40:00,
2013-02-01 21:50:00,11.1,7.5,30.39,West,280,0.0,10.0,85,0.00,,,0.00,Wunderground v.1.15,2013-02-02 02:50:00,
2013-02-01 21:55:00,11.1,7.5,30.39,West,280,0.0,10.0,85,0.00,,,0.00,Wunderground v.1.15,2013-02-02 02:55:00,
2013-02-01 22:00:00,11.0,7.4,30.39,West,280,0.0,10.0,85,0.00,,,0.00,Wunderground v.1.15,2013-02-02 03:00:00,
2013-02-01 22:05:00,10.9,7.5,30.39,West,280,0.0,10.0,86,0.00,,,0.00,Wunderground v.1.15,2013-02-02 03:05:00,
2013-02-01 22:10:00,10.9,7.5,30.39,West,280,0.0,10.0,86,0.00,,,0.00,Wunderground v.1.15,2013-02-02 03:10:00,
2013-02-01 22:15:00,10.8,7.7,30.39,West,280,0.0,10.0,87,0.00,,,0.00,Wunderground v.1.15,2013-02-02 03:15:00,
2013-02-01 22:25:00,10.4,7.3,30.40,West,279,0.0,10.0,87,0.00,,,0.00,Wunderground v.1.15,2013-02-02 03:25:00,
2013-02-01 22:35:00,10.3,7.5,30.39,West,280,0.0,10.0,88,0.00,,,0.00,Wunderground v.1.15,2013-02-02 03:35:00,
2013-02-01 22:40:00,10.2,7.4,30.39,West,280,0.0,10.0,88,0.00,,,0.00,Wunderground v.1.15,2013-02-02 03:40:00,
2013-02-01 22:45:00,10.2,7.4,30.39,West,280,0.0,10.0,88,0.00,,,0.00,Wunderground v.1.15,2013-02-02 03:45:00,
2013-02-01 22:50:00,10.1,7.3,30.39,West,280,0.0,10.0,88,0.00,,,0.00,Wunderground v.1.15,2013-02-02 03:50:00,
2013-02-01 22:55:00,10.1,7.3,30.38,West,280,0.0,10.0,88,0.00,,,0.00,Wunderground v.1.15,2013-02-02 03:55:00,
2013-02-01 23:00:00,10.1,7.5,30.38,West,280,0.0,10.0,89,0.00,,,0.00,Wunderground v.1.15,2013-02-02 04:00:00,
2013-02-01 23:10:00,10.0,7.4,30.38,West,280,0.0,10.0,89,0.00,,,0.00,Wunderground v.1.15,2013-02-02 04:10:00,
2013-02-01 23:15:00,10.1,7.5,30.38,West,280,0.0,10.0,89,0.00,,,0.00,Wunderground v.1.15,2013-02-02 04:15:00,
2013-02-01 23:20:00,10.0,7.4,30.38,West,280,0.0,10.0,89,0.00,,,0.00,Wunderground v.1.15,2013-02-02 04:20:00,
2013-02-01 23:25:00,10.0,7.7,30.38,West,280,0.0,10.0,90,0.00,,,0.00,Wunderground v.1.15,2013-02-02 04:25:00,
2013-02-01 23:35:00,10.1,7.8,30.38,West,280,0.0,10.0,90,0.00,,,0.00,Wunderground v.1.15,2013-02-02 04:35:00,
2013-02-01 23:40:00,10.0,7.7,30.38,West,280,0.0,10.0,90,0.00,,,0.00,Wunderground v.1.15,2013-02-02 04:40:00,
2013-02-01 23:45:00,9.9,7.6,30.37,West,280,0.0,10.0,90,0.00,,,0.00,Wunderground v.1.15,2013-02-02 04:45:00,
2013-02-01 23:50:00,10.0,7.7,30.37,West,280,0.0,10.0,90,0.00,,,0.00,Wunderground v.1.15,2013-02-02 04:50:00,
2013-02-01 23:55:00,9.9,7.6,30.37,West,280,0.0,10.0,90,0.00,,,0.00,Wunderground v.1.15,2013-02-02 04:55:00,